Regional Weather Roundup
Issued by NWS Upton, NY

Current Version | Previous Version | Text Only | Print | Product List | Glossary On
Versions: 1 2 3 4 5 6 7 8 9 10 11 12 13 14 15 16 17 18 19 20 21 22 23 24 25 26 27
000
ASUS41 KOKX 261008
RWROKX

REGIONAL WEATHER ROUNDUP
NATIONAL WEATHER SERVICE NEW YORK NY
600 AM EDT SUN MAR 26 2017

NOTE: "FAIR" INDICATES FEW OR NO CLOUDS BELOW 12,000 FEET WITH NO
SIGNIFICANT WEATHER AND/OR OBSTRUCTIONS TO VISIBILITY.

NYZ071-072-176-178-NJZ106-104-261100-
NEW YORK CITY METRO AREA

CITY           SKY/WX    TMP DP  RH WIND       PRES   REMARKS
Central Park   CLOUDY    38  33  82 E14G21    30.44R WCI  30
Wall St Helipt CLOUDY    39  35  86 NE15G24   30.42S WCI  31
LaGuardia APRT CLOUDY    40  33  76 NE17      30.42R WCI  31
Kennedy INTL   CLOUDY    39  37  92 NE10      30.42S WCI  32
Breezy Point     N/A     37 N/A N/A NE12        N/A  WCI  30
Newark/Liberty CLOUDY    40  35  83 NE12      30.41S WCI  33
Teterboro      LGT RAIN  40  33  76 NE7G18    30.42R
$$

NYZ177-179-078>081-261100-
LONG ISLAND NEW YORK

CITY           SKY/WX    TMP DP  RH WIND       PRES   REMARKS
Jones Beach      N/A     39 N/A N/A NE13        N/A  WCI  32
Matinecock PT    N/A     37 N/A N/A E22         N/A  WCI  27
Farmingdale    CLOUDY    38  34  85 NE9       30.42R WCI  31
MacArthur/ISP  CLOUDY    38  34  85 NE12      30.42R WCI  30
Shirley        CLOUDY    37  33  85 VRB3      30.44R
Westhampton    LGT RAIN  37  31  78 NE9       30.45R WCI  30
East Hampton   CLOUDY    36  32  87 NE7       30.44S WCI  30
Montauk          N/A     37  33  85 NE7       30.46R WCI  32
$$

NYZ052-065-067-261100-
HUDSON VALLEY

CITY           SKY/WX    TMP DP  RH WIND       PRES   REMARKS
White Plains   CLOUDY    37  30  75 E9        30.42R WCI  30
Newburgh       CLOUDY    34  32  93 NE9       30.44S WCI  26
Montgomery     CLOUDY    34  28  79 NE9       30.42S WCI  27
Poughkeepsie   CLOUDY    33  29  85 N7        30.45R WCI  27
Albany         CLOUDY    27  17  66 CALM      30.48R
$$

NJZ001-105-106-008-010-013-015-019>022-104-261100-
NEW JERSEY

CITY           SKY/WX    TMP DP  RH WIND       PRES   REMARKS
Newark/Liberty CLOUDY    40  35  83 NE12      30.41S WCI  33
Teterboro      LGT RAIN  40  33  76 NE7G18    30.42R
Caldwell       CLOUDY    39  33  79 E8        30.42S WCI  33
Somerville     CLOUDY    40  34  79 VRB7      30.38S
Linden         CLOUDY    40  35  81 E10G16    30.41S WCI  33
Sussex         CLOUDY    34  32  92 NE8       30.41S WCI  27
Andover          N/A     35  33  92 NE6       30.39S WCI  30
Trenton        CLOUDY    41  37  86 E9        30.38R
Millville      CLOUDY    44  39  82 E14G22    30.33R
Atlantic City  CLOUDY    43  38  82 E17G26    30.35S
Wrightstown    CLOUDY    41  37  86 NE9       30.36R
Toms River     CLOUDY    41  37  86 E12       30.39S
Belmar         CLOUDY    40  35  83 NE15G21   30.40R WCI  32
$$

PAZ047>061-062-071-261100-
EASTERN PENNSYLVANIA

CITY           SKY/WX    TMP DP  RH WIND       PRES   REMARKS
Philadelphia   CLOUDY    43  37  79 E12       30.37R
Allentown      CLOUDY    40  34  79 NE13      30.38R WCI  32
Scranton       CLOUDY    38  33  82 E5        30.33F WCI  34
$$

CTZ002-004>006-009-010-012-RIZ004-006-007-MAZ004-011-015-261100-
SOUTHERN NEW ENGLAND
 IN CT

CITY           SKY/WX    TMP DP  RH WIND       PRES   REMARKS
Bradley INTL   PTCLDY    28  26  92 N5        30.48R WCI  23
Hartford       MOCLDY    31  29  92 NE6       30.49R WCI  25
Danbury        CLOUDY    35  28  75 NE9       30.44S WCI  28
Wtrbury/Oxford CLOUDY    34  25  69 NE12      30.44S WCI  25
Bridgeport     CLOUDY    38  31  76 NE12      30.45S WCI  30
Meriden        CLOUDY    35  29  78 N8        30.47R WCI  29
New Haven      CLOUDY    36  30  79 NE9       30.45S WCI  29
Chester        NOT AVBL
Groton         CLEAR     30  28  92 N5        30.46R WCI  25
Wilimantic     PTCLDY    28  26  92 CALM      30.48R

 IN RI

CITY           SKY/WX    TMP DP  RH WIND       PRES   REMARKS
Providence     CLOUDY    31  25  78 NE9       30.48R WCI  23
Block Island   CLOUDY    36  34  92 NE9       30.46R WCI  29
Westerly       CLOUDY    32  29  88 NE3       30.47R
 IN MA

CITY           SKY/WX    TMP DP  RH WIND       PRES   REMARKS
Boston         CLOUDY    30  26  85 N10       30.50R WCI  21
Worcester      CLOUDY    28  21  75 NE9       30.44R WCI  19
Westfield      CLOUDY    27  26  96 N6        30.48R WCI  20
Provincetown   CLOUDY    37  27  67 NE12      30.48R WCI  29
Nantucket      CLOUDY    32  30  92 N7        30.45R WCI  26
$$

ANZ330-335-338-340-345-350-353-355-261100-
COASTAL MARINE OBSERVATIONS


STATION/POSITION TIME  SKY/WX   TEMP    WIND        PRES    VSBY  WAVE
                                AIR SEA DIR/SP/G                  HT/PER
                 (UTC)          (F)     (DEG/KT/KT) (MB)    (MI)  (FT/S)
NY HARB ENTRANCE 0850            41 42   60/ 19/ 23 1028.7          4/ 5
20 S FIRE ISLAND 0950            39 40   50/ 21/ 27 1028.0          4/ 5
GREAT SOUTH BAY  NOT AVBL
23 SSW MONTAUK P 0850            39 43              1030.1          3/ 7
15 E BARNEGAT LI 0930               43                N/A           6/ 5
HUDSON CANYON    0850            42 45   70/ 21/ 25 1027.3          5/ 5
KINGS POINT      0936            38 39              1030.1
EXECUTION ROCKS  NOT AVBL
CENTRAL LI SOUND 0930            37      50/ 12/ 14   N/A           1
EASTERN LI SOUND NOT AVBL
ROBBINS REEF     0936            39      50/ 15/ 18 1029.8
$$


>>>>>>>>>>>>>>>>>>>>>>>>>>>> KEY <<<<<<<<<<<<<<<<<<<<<<<<<<<
>                                                          <
>     SKY/WX - Sky Condition/Present Weather               <
>     TMP    - Temperature in Fahrenheit                   <
>     DP     - Dew Point in Fahrenheit                     <
>     RH     - Relative Humidity in Percent                <
>     WIND   - Direction (from) and Speed in MPH           <
>     PRES   - Mean Sea Level Pressure (inches of Hg)      <
>     WCI    - Wind Chill Index                            <
>     VSB    - VISIBILITY IN MILES                         <
>     HX     - HEAT INDEX                                  <
>     TC     - TEMPERATURE IN CELSIUS                      <
>     VRB    - VARIABLE WIND DIRECTION                     <
>                                                          <
>>>>>>>>>>>>>>>>>>>>>>>>>>>> KEY <<<<<<<<<<<<<<<<<<<<<<<<<<<




USA.gov is the U.S. government's official web portal to all federal, state and local government web resources and services.